When you browse on this site, cookies collect data to enhance your experience and personalize the content and advertising you see.
Visit our Privacy Policy to learn more. By continuing to use the site, you agree to this use of cookies and data.
  • In Austria
  • List of Countries
  • For 7 days
  • Water Temperature
  • Weather Map
  • News
  • Weather Widgets
  • user-avatar
    Login

    Hourly Weather Banja Luka

    Today, 19 February, Wednesday

    Time Temperature Precipitation Wind Pressure Humidity
    00:00 +4°C° 0 mm 1 mps 719 mmHg 92%
    01:00 +4°C° 0 mm 1 mps 719 mmHg 93%
    02:00 +4°C° 0 mm 1 mps 719 mmHg 93%
    03:00 +4°C° 0 mm 1 mps 719 mmHg 93%
    04:00 +4°C° 0 mm 1 mps 718 mmHg 93%
    05:00 +3°C° 0 mm 1 mps 718 mmHg 93%
    06:00 +3°C° 0 mm 1 mps 718 mmHg 93%
    07:00 +3°C° 0 mm 1 mps 717 mmHg 93%
    08:00 +5°C° 0 mm 1 mps 717 mmHg 87%
    09:00 +6°C° 0 mm 1 mps 717 mmHg 80%
    10:00 +8°C° 0 mm 1 mps 717 mmHg 74%
    11:00 +8°C° 0 mm 1 mps 717 mmHg 73%
    12:00 +9°C° 0 mm 1 mps 716 mmHg 72%
    13:00 +9°C° 0 mm 1 mps 716 mmHg 72%
    14:00 +9°C° 0.1 mm 1 mps 715 mmHg 75%
    15:00 +8°C° 0.1 mm 1 mps 715 mmHg 77%
    16:00 +8°C° 0.1 mm 1 mps 715 mmHg 80%
    17:00 +7°C° 0.2 mm 1 mps 715 mmHg 83%
    18:00 +5°C° 0.2 mm 2 mps 715 mmHg 87%
    19:00 +4°C° 0.2 mm 2 mps 715 mmHg 90%
    20:00 +4°C° 0.5 mm 2 mps 715 mmHg 92%
    21:00 +3°C° 0.5 mm 2 mps 715 mmHg 94%
    22:00 +3°C° 0.5 mm 2 mps 715 mmHg 96%
    23:00 +2°C° 0.4 mm 2 mps 716 mmHg 96%

    Tomorrow, 20 February, Thursday

    Time Temperature Precipitation Wind Pressure Humidity
    00:00 +2°C° 0.4 mm 2 mps 716 mmHg 96%
    01:00 +2°C° 0.4 mm 2 mps 717 mmHg 96%
    02:00 +2°C° 1.4 mm 2 mps 717 mmHg 96%
    03:00 +1°C° 1.4 mm 2 mps 717 mmHg 96%
    04:00 +1°C° 1.4 mm 2 mps 717 mmHg 96%
    05:00 +1°C° 0.1 mm 2 mps 718 mmHg 96%
    06:00 +1°C° 0.1 mm 1 mps 718 mmHg 96%
    07:00 0°C° 0.1 mm 1 mps 718 mmHg 96%
    08:00 +2°C° 0 mm 1 mps 719 mmHg 89%
    09:00 +3°C° 0 mm 1 mps 719 mmHg 81%
    10:00 +4°C° 0 mm 1 mps 720 mmHg 73%
    11:00 +5°C° 0 mm 1 mps 719 mmHg 69%
    12:00 +5°C° 0 mm 1 mps 719 mmHg 65%
    13:00 +6°C° 0 mm 1 mps 719 mmHg 61%
    14:00 +6°C° 0 mm 1 mps 719 mmHg 61%
    15:00 +6°C° 0 mm 1 mps 719 mmHg 61%
    16:00 +6°C° 0 mm 1 mps 718 mmHg 61%
    17:00 +4°C° 0 mm 1 mps 718 mmHg 65%
    18:00 +3°C° 0 mm 1 mps 718 mmHg 70%
    19:00 +2°C° 0 mm 1 mps 718 mmHg 75%
    20:00 +1°C° 0 mm 1 mps 718 mmHg 75%
    21:00 +1°C° 0 mm 1 mps 718 mmHg 76%
    22:00 +1°C° 0 mm 1 mps 718 mmHg 76%
    23:00 +1°C° 0 mm 1 mps 718 mmHg 75%

    Day after tomorrow, 21 February, Friday

    Time Temperature Precipitation Wind Pressure Humidity
    00:00 +1°C° 0 mm 1 mps 718 mmHg 75%
    01:00 +1°C° 0 mm 1 mps 718 mmHg 75%
    02:00 +1°C° 0 mm 1 mps 718 mmHg 74%
    03:00 +1°C° 0 mm 1 mps 718 mmHg 74%
    04:00 +1°C° 0 mm 1 mps 717 mmHg 74%
    05:00 +1°C° 0 mm 1 mps 718 mmHg 74%
    06:00 +2°C° 0 mm 1 mps 718 mmHg 73%
    07:00 +2°C° 0 mm 1 mps 718 mmHg 73%
    14:00 +10°C° 0 mm 2 mps 720 mmHg 57%
    15:00 +9°C° 0 mm 2 mps 721 mmHg 62%
    16:00 +8°C° 0 mm 3 mps 721 mmHg 67%
    17:00 +5°C° 0.1 mm 3 mps 721 mmHg 76%
    18:00 +3°C° 0.1 mm 3 mps 722 mmHg 84%
    19:00 +3°C° 0.1 mm 2 mps 723 mmHg 93%
    20:00 +2°C° 0.2 mm 2 mps 723 mmHg 91%
    21:00 +3°C° 0.2 mm 1 mps 724 mmHg 89%
    22:00 +3°C° 0.2 mm 1 mps 724 mmHg 86%
    23:00 +2°C° 0 mm 1 mps 724 mmHg 85%

    22 February, Saturday

    Time Temperature Precipitation Wind Pressure Humidity
    00:00 0°C° 0 mm 0 mps 724 mmHg 84%
    01:00 0°C° 0 mm 0 mps 724 mmHg 83%
    02:00 -1°C° 0 mm 0 mps 724 mmHg 82%
    03:00 -1°C° 0 mm 0 mps 724 mmHg 82%
    04:00 -1°C° 0 mm 0 mps 724 mmHg 81%
    05:00 -1°C° 0 mm 0 mps 724 mmHg 81%
    06:00 -1°C° 0 mm 0 mps 724 mmHg 81%
    07:00 -1°C° 0 mm 0 mps 725 mmHg 81%
    08:00 +1°C° 0 mm 0 mps 725 mmHg 72%
    09:00 +3°C° 0 mm 0 mps 726 mmHg 64%
    10:00 +5°C° 0 mm 0 mps 726 mmHg 55%
    11:00 +6°C° 0 mm 0 mps 726 mmHg 52%
    12:00 +8°C° 0 mm 1 mps 726 mmHg 49%
    13:00 +9°C° 0 mm 1 mps 726 mmHg 46%
    14:00 +8°C° 0 mm 1 mps 726 mmHg 48%
    15:00 +7°C° 0 mm 0 mps 725 mmHg 51%
    16:00 +7°C° 0 mm 0 mps 725 mmHg 53%
    17:00 +5°C° 0 mm 0 mps 725 mmHg 57%
    18:00 +5°C° 0 mm 1 mps 725 mmHg 62%
    19:00 +3°C° 0 mm 1 mps 725 mmHg 67%
    20:00 +3°C° 0 mm 1 mps 725 mmHg 66%
    21:00 +3°C° 0 mm 1 mps 725 mmHg 66%
    22:00 +3°C° 0 mm 1 mps 725 mmHg 66%
    23:00 +3°C° 0 mm 1 mps 725 mmHg 63%

    23 February, Sunday

    Time Temperature Precipitation Wind Pressure Humidity
    00:00 +2°C° 0 mm 2 mps 725 mmHg 61%
    01:00 +2°C° 0 mm 2 mps 725 mmHg 58%
    02:00 +2°C° 0 mm 2 mps 724 mmHg 56%
    03:00 +3°C° 0 mm 2 mps 724 mmHg 55%
    04:00 +3°C° 0 mm 2 mps 723 mmHg 53%
    05:00 +3°C° 0 mm 2 mps 723 mmHg 52%
    06:00 +3°C° 0 mm 2 mps 723 mmHg 50%
    07:00 +5°C° 0 mm 1 mps 723 mmHg 49%
    08:00 +7°C° 0 mm 1 mps 724 mmHg 48%
    09:00 +10°C° 0 mm 1 mps 724 mmHg 46%
    10:00 +12°C° 0 mm 1 mps 724 mmHg 44%
    11:00 +13°C° 0 mm 1 mps 724 mmHg 44%
    12:00 +15°C° 0 mm 1 mps 723 mmHg 43%
    13:00 +16°C° 0 mm 1 mps 723 mmHg 42%
    14:00 +15°C° 0 mm 1 mps 723 mmHg 47%
    15:00 +14°C° 0 mm 1 mps 722 mmHg 53%
    16:00 +14°C° 0 mm 1 mps 722 mmHg 58%
    17:00 +12°C° 0 mm 1 mps 721 mmHg 62%
    18:00 +10°C° 0 mm 1 mps 721 mmHg 67%
    19:00 +7°C° 0 mm 2 mps 721 mmHg 72%
    20:00 +6°C° 0 mm 2 mps 721 mmHg 72%
    21:00 +6°C° 0 mm 2 mps 721 mmHg 72%
    22:00 +5°C° 0 mm 2 mps 720 mmHg 72%
    23:00 +5°C° 0 mm 2 mps 720 mmHg 71%

    24 February, Monday

    Time Temperature Precipitation Wind Pressure Humidity
    00:00 +5°C° 0 mm 2 mps 719 mmHg 70%
    01:00 +4°C° 0 mm 2 mps 719 mmHg 70%
    02:00 +4°C° 0 mm 2 mps 719 mmHg 71%
    03:00 +4°C° 0 mm 2 mps 719 mmHg 72%
    04:00 +4°C° 0 mm 2 mps 718 mmHg 73%
    05:00 +4°C° 0 mm 2 mps 718 mmHg 75%
    06:00 +4°C° 0 mm 2 mps 718 mmHg 76%
    07:00 +4°C° 0 mm 2 mps 718 mmHg 77%
    08:00 +8°C° 0 mm 1 mps 719 mmHg 72%
    09:00 +10°C° 0 mm 1 mps 719 mmHg 67%
    10:00 +11°C° 0 mm 0 mps 720 mmHg 61%
    11:00 +12°C° 0 mm 1 mps 720 mmHg 61%
    12:00 +12°C° 0 mm 3 mps 721 mmHg 61%
    13:00 +12°C° 0 mm 4 mps 721 mmHg 60%
    14:00 +11°C° 0 mm 3 mps 721 mmHg 68%
    15:00 +9°C° 0 mm 2 mps 721 mmHg 76%
    16:00 +7°C° 0 mm 2 mps 721 mmHg 84%
    17:00 +7°C° 0 mm 1 mps 722 mmHg 86%
    18:00 +7°C° 0 mm 1 mps 722 mmHg 87%
    19:00 +5°C° 0 mm 0 mps 722 mmHg 89%
    20:00 +4°C° 0 mm 0 mps 722 mmHg 87%
    21:00 +4°C° 0 mm 0 mps 723 mmHg 85%
    22:00 +3°C° 0 mm 0 mps 723 mmHg 83%
    23:00 +3°C° 0 mm 0 mps 723 mmHg 82%
    Show more